| time (UTC) | temp F | wind direction | speed MPH | gust MPH | rain 1hr in | rain 24hr in | rain mn in | humidity % | barometer mb |
| 20260510190017 | 74 | 0.0 | 3.0 | 0.00 | 0.23 | 0.00 | 50 | 1012.2 | |
| 20260510185517 | 74 | 0.0 | 3.0 | 0.00 | 0.23 | 0.00 | 51 | 1012.1 | |
| 20260510185017 | 74 | 270 | 1.0 | 6.0 | 0.00 | 0.23 | 0.00 | 48 | 1012.2 |
| 20260510184517 | 75 | 292 | 1.0 | 4.0 | 0.00 | 0.23 | 0.00 | 50 | 1012.2 |
| 20260510184017 | 74 | 225 | 2.0 | 7.0 | 0.00 | 0.23 | 0.00 | 50 | 1012.3 |
| 20260510183517 | 74 | 225 | 1.0 | 4.0 | 0.00 | 0.23 | 0.00 | 51 | 1012.3 |
| 20260510183016 | 74 | 0 | 1.0 | 7.0 | 0.00 | 0.23 | 0.00 | 53 | 1012.3 |
| 20260510182517 | 73 | 225 | 1.0 | 4.0 | 0.00 | 0.23 | 0.00 | 53 | 1012.3 |
| 20260510182016 | 73 | 0.0 | 3.0 | 0.00 | 0.23 | 0.00 | 55 | 1012.4 | |
| 20260510181517 | 73 | 0.0 | 3.0 | 0.00 | 0.23 | 0.00 | 57 | 1012.3 | |
| 20260510181017 | 73 | 0.0 | 4.0 | 0.00 | 0.23 | 0.00 | 58 | 1012.4 | |
| 20260510180517 | 73 | 0.0 | 3.0 | 0.00 | 0.23 | 0.00 | 57 | 1012.3 | |
| 20260510180017 | 73 | 202 | 1.0 | 4.0 | 0.00 | 0.23 | 0.00 | 59 | 1012.3 |
| 20260510175517 | 73 | 225 | 2.0 | 7.0 | 0.00 | 0.23 | 0.00 | 59 | 1012.2 |
| 20260510175016 | 73 | 0.0 | 4.0 | 0.00 | 0.23 | 0.00 | 60 | 1012.2 | |
| 20260510174517 | 73 | 0.0 | 0.0 | 0.00 | 0.24 | 0.00 | 62 | 1012.2 | |
| 20260510174017 | 73 | 0.0 | 0.0 | 0.00 | 0.24 | 0.00 | 60 | 1012.2 | |
| 20260510173516 | 73 | 202 | 1.0 | 4.0 | 0.00 | 0.24 | 0.00 | 60 | 1012.1 |
| 20260510173017 | 73 | 0.0 | 3.0 | 0.00 | 0.25 | 0.00 | 61 | 1012.1 | |
| 20260510172517 | 72 | 0.0 | 2.0 | 0.00 | 0.25 | 0.00 | 62 | 1012.1 | |
| 20260510172017 | 73 | 0.0 | 1.0 | 0.00 | 0.25 | 0.00 | 62 | 1012.1 | |
| 20260510171517 | 73 | 0.0 | 3.0 | 0.00 | 0.25 | 0.00 | 61 | 1012.2 | |
| 20260510171016 | 72 | 225 | 1.0 | 4.0 | 0.00 | 0.25 | 0.00 | 62 | 1012.2 |
| 20260510170517 | 72 | 0.0 | 0.0 | 0.00 | 0.25 | 0.00 | 63 | 1012.2 | |
| 20260510170016 | 71 | 0.0 | 3.0 | 0.00 | 0.25 | 0.00 | 64 | 1012.3 | |
| 20260510165516 | 71 | 225 | 1.0 | 5.0 | 0.00 | 0.25 | 0.00 | 67 | 1012.3 |
| 20260510165016 | 70 | 0.0 | 4.0 | 0.00 | 0.25 | 0.00 | 69 | 1012.3 | |
| 20260510164516 | 70 | 0.0 | 4.0 | 0.00 | 0.25 | 0.00 | 69 | 1012.4 | |
| 20260510164017 | 69 | 0.0 | 0.0 | 0.00 | 0.25 | 0.00 | 70 | 1012.5 | |
| 20260510163516 | 68 | 0.0 | 0.0 | 0.00 | 0.25 | 0.00 | 73 | 1012.6 | |
| 20260510163032 | 68 | 0.0 | 3.0 | 0.00 | 0.25 | 0.00 | 72 | 1012.7 | |
| 20260510162516 | 67 | 0.0 | 0.0 | 0.00 | 0.25 | 0.00 | 74 | 1012.6 | |
| 20260510162016 | 67 | 0.0 | 0.0 | 0.00 | 0.25 | 0.00 | 73 | 1012.7 | |
| 20260510161516 | 66 | 0.0 | 4.0 | 0.00 | 0.25 | 0.00 | 75 | 1012.7 | |
| 20260510161017 | 66 | 0.0 | 0.0 | 0.00 | 0.25 | 0.00 | 76 | 1012.8 | |
| 20260510160517 | 66 | 0.0 | 0.0 | 0.00 | 0.25 | 0.00 | 77 | 1012.8 | |
| 20260510160016 | 65 | 0.0 | 0.0 | 0.00 | 0.25 | 0.00 | 79 | 1012.8 | |
| 20260510155516 | 65 | 0.0 | 0.0 | 0.00 | 0.25 | 0.00 | 78 | 1012.7 | |
| 20260510155016 | 64 | 0.0 | 0.0 | 0.00 | 0.25 | 0.00 | 79 | 1012.7 | |
| 20260510154516 | 64 | 0.0 | 0.0 | 0.00 | 0.25 | 0.00 | 79 | 1012.7 | |
| 20260510154016 | 64 | 0.0 | 0.0 | 0.00 | 0.25 | 0.00 | 80 | 1012.9 | |
| 20260510153516 | 63 | 0.0 | 1.0 | 0.00 | 0.25 | 0.00 | 80 | 1013.0 | |
| 20260510153016 | 63 | 0.0 | 2.0 | 0.00 | 0.25 | 0.00 | 82 | 1013.0 | |
| 20260510152517 | 62 | 0.0 | 0.0 | 0.00 | 0.25 | 0.00 | 83 | 1012.9 | |
| 20260510152016 | 62 | 0.0 | 3.0 | 0.00 | 0.25 | 0.00 | 83 | 1012.9 | |
| 20260510151516 | 62 | 0.0 | 3.0 | 0.00 | 0.25 | 0.00 | 84 | 1012.9 | |
| 20260510151016 | 61 | 0.0 | 0.0 | 0.00 | 0.25 | 0.00 | 84 | 1012.9 | |
| 20260510150516 | 61 | 0.0 | 0.0 | 0.00 | 0.25 | 0.00 | 85 | 1012.9 | |
| 20260510150016 | 61 | 0.0 | 0.0 | 0.00 | 0.25 | 0.00 | 86 | 1013.0 | |
| 20260510145516 | 60 | 0.0 | 0.0 | 0.00 | 0.25 | 0.00 | 87 | 1013.1 | |
| 20260510145016 | 60 | 0.0 | 0.0 | 0.00 | 0.25 | 0.00 | 87 | 1013.2 | |
| 20260510144516 | 60 | 0.0 | 0.0 | 0.00 | 0.25 | 0.00 | 89 | 1013.2 | |
| 20260510144016 | 60 | 0.0 | 0.0 | 0.00 | 0.25 | 0.00 | 90 | 1013.1 | |
| 20260510143516 | 59 | 0.0 | 0.0 | 0.00 | 0.25 | 0.00 | 89 | 1012.9 | |
| 20260510143016 | 59 | 0.0 | 0.0 | 0.00 | 0.25 | 0.00 | 90 | 1012.9 | |
| 20260510142516 | 59 | 0.0 | 0.0 | 0.00 | 0.25 | 0.00 | 90 | 1012.9 | |
| 20260510142016 | 58 | 0.0 | 0.0 | 0.00 | 0.25 | 0.00 | 90 | 1012.9 | |
| 20260510141516 | 58 | 0.0 | 0.0 | 0.00 | 0.25 | 0.00 | 91 | 1013.0 | |
| 20260510141016 | 58 | 0.0 | 0.0 | 0.00 | 0.25 | 0.00 | 91 | 1013.0 | |
| 20260510140517 | 58 | 0.0 | 0.0 | 0.00 | 0.25 | 0.00 | 91 | 1012.9 | |
| 20260510140016 | 57 | 0.0 | 0.0 | 0.00 | 0.25 | 0.00 | 91 | 1012.9 | |
| 20260510135516 | 57 | 0.0 | 0.0 | 0.00 | 0.25 | 0.00 | 91 | 1012.9 | |
| 20260510135016 | 57 | 0.0 | 0.0 | 0.00 | 0.25 | 0.00 | 91 | 1012.9 | |
| 20260510134516 | 57 | 0.0 | 0.0 | 0.00 | 0.25 | 0.00 | 91 | 1012.8 | |
| 20260510134016 | 57 | 0.0 | 0.0 | 0.00 | 0.25 | 0.00 | 91 | 1012.9 | |
| 20260510133516 | 57 | 0.0 | 0.0 | 0.00 | 0.25 | 0.00 | 91 | 1012.8 | |
| 20260510133017 | 56 | 0.0 | 0.0 | 0.00 | 0.25 | 0.00 | 92 | 1012.9 | |
| 20260510132532 | 56 | 0.0 | 0.0 | 0.00 | 0.25 | 0.00 | 92 | 1012.8 | |
| 20260510132016 | 56 | 0.0 | 0.0 | 0.00 | 0.25 | 0.00 | 91 | 1012.8 | |
| 20260510131516 | 56 | 0.0 | 0.0 | 0.00 | 0.25 | 0.00 | 91 | 1012.8 | |
| 20260510131016 | 56 | 0.0 | 0.0 | 0.00 | 0.25 | 0.00 | 91 | 1012.8 | |
| 20260510130516 | 56 | 0.0 | 0.0 | 0.00 | 0.25 | 0.00 | 92 | 1012.7 | |
| 20260510130016 | 56 | 0.0 | 0.0 | 0.00 | 0.25 | 0.00 | 92 | 1012.6 | |
| 20260510125516 | 55 | 0.0 | 0.0 | 0.00 | 0.25 | 0.00 | 92 | 1012.4 | |
| 20260510125016 | 55 | 0.0 | 0.0 | 0.00 | 0.25 | 0.00 | 92 | 1012.4 | |
| 20260510124516 | 55 | 0.0 | 0.0 | 0.00 | 0.25 | 0.00 | 92 | 1012.5 | |
| 20260510124016 | 55 | 0.0 | 0.0 | 0.00 | 0.25 | 0.00 | 92 | 1012.5 | |
| 20260510123516 | 55 | 0.0 | 0.0 | 0.00 | 0.25 | 0.00 | 91 | 1012.3 | |
| 20260510123016 | 55 | 0.0 | 0.0 | 0.00 | 0.25 | 0.00 | 91 | 1012.3 | |
| 20260510122516 | 55 | 0.0 | 0.0 | 0.00 | 0.25 | 0.00 | 91 | 1012.3 | |
| 20260510122016 | 55 | 0.0 | 0.0 | 0.00 | 0.25 | 0.00 | 92 | 1012.4 | |
| 20260510121516 | 54 | 0.0 | 0.0 | 0.00 | 0.25 | 0.00 | 91 | 1012.3 | |
| 20260510121016 | 54 | 0.0 | 0.0 | 0.00 | 0.25 | 0.00 | 91 | 1012.2 | |
| 20260510120516 | 54 | 0.0 | 0.0 | 0.00 | 0.25 | 0.00 | 92 | 1012.0 | |
| 20260510120016 | 54 | 0.0 | 0.0 | 0.00 | 0.25 | 0.00 | 92 | 1012.0 | |
| 20260510115516 | 54 | 0.0 | 0.0 | 0.00 | 0.25 | 0.00 | 91 | 1012.0 | |
| 20260510115016 | 54 | 0.0 | 0.0 | 0.00 | 0.25 | 0.00 | 91 | 1012.0 | |
| 20260510114516 | 54 | 0.0 | 0.0 | 0.00 | 0.25 | 0.00 | 91 | 1012.0 | |
| 20260510114016 | 54 | 0.0 | 0.0 | 0.00 | 0.25 | 0.00 | 91 | 1011.9 | |
| 20260510113517 | 54 | 0.0 | 0.0 | 0.00 | 0.25 | 0.00 | 91 | 1011.9 | |
| 20260510113016 | 54 | 0.0 | 0.0 | 0.00 | 0.25 | 0.00 | 92 | 1011.9 | |
| 20260510112515 | 54 | 0.0 | 0.0 | 0.00 | 0.25 | 0.00 | 92 | 1011.8 | |
| 20260510112016 | 54 | 0.0 | 0.0 | 0.00 | 0.25 | 0.00 | 92 | 1011.9 | |
| 20260510111516 | 54 | 0.0 | 0.0 | 0.00 | 0.25 | 0.00 | 92 | 1011.8 | |
| 20260510111015 | 54 | 0.0 | 0.0 | 0.00 | 0.25 | 0.00 | 91 | 1011.7 | |
| 20260510110515 | 53 | 0.0 | 0.0 | 0.00 | 0.25 | 0.00 | 91 | 1011.5 | |
| 20260510110016 | 53 | 0.0 | 0.0 | 0.00 | 0.25 | 0.00 | 91 | 1011.4 | |
| 20260510105516 | 53 | 0.0 | 0.0 | 0.00 | 0.25 | 0.00 | 91 | 1011.4 | |
| 20260510105015 | 53 | 0.0 | 0.0 | 0.00 | 0.25 | 0.00 | 91 | 1011.3 | |
| 20260510104515 | 53 | 0.0 | 0.0 | 0.00 | 0.25 | 0.00 | 91 | 1011.2 | |
| 20260510104016 | 53 | 0.0 | 0.0 | 0.00 | 0.25 | 0.00 | 91 | 1011.2 | |
| 20260510103515 | 53 | 0.0 | 0.0 | 0.00 | 0.25 | 0.00 | 91 | 1011.3 | |
| 20260510103016 | 53 | 0.0 | 0.0 | 0.00 | 0.25 | 0.00 | 91 | 1011.4 | |
| 20260510102516 | 53 | 0.0 | 0.0 | 0.00 | 0.25 | 0.00 | 91 | 1011.1 | |
| 20260510102031 | 53 | 0.0 | 0.0 | 0.00 | 0.25 | 0.00 | 91 | 1011.2 | |
| 20260510101516 | 53 | 0.0 | 0.0 | 0.00 | 0.25 | 0.00 | 91 | 1011.3 | |
| 20260510101016 | 53 | 0.0 | 0.0 | 0.00 | 0.25 | 0.00 | 91 | 1011.1 | |
| 20260510100515 | 53 | 0.0 | 0.0 | 0.00 | 0.25 | 0.00 | 91 | 1011.2 | |
| 20260510100015 | 53 | 0.0 | 0.0 | 0.00 | 0.25 | 0.00 | 91 | 1011.4 | |
| 20260510095516 | 53 | 0.0 | 0.0 | 0.00 | 0.25 | 0.00 | 91 | 1011.3 | |
| 20260510095016 | 53 | 0.0 | 0.0 | 0.00 | 0.25 | 0.00 | 91 | 1011.3 | |
| 20260510094515 | 53 | 0.0 | 0.0 | 0.00 | 0.25 | 0.00 | 91 | 1011.3 | |
| 20260510094015 | 53 | 0.0 | 0.0 | 0.00 | 0.25 | 0.00 | 91 | 1011.3 | |
| 20260510093515 | 53 | 0.0 | 0.0 | 0.00 | 0.25 | 0.00 | 91 | 1011.3 | |
| 20260510093016 | 53 | 0.0 | 0.0 | 0.00 | 0.25 | 0.00 | 91 | 1011.2 | |
| 20260510092515 | 53 | 0.0 | 0.0 | 0.00 | 0.25 | 0.00 | 91 | 1011.3 | |
| 20260510092015 | 53 | 0.0 | 0.0 | 0.00 | 0.25 | 0.00 | 91 | 1011.3 | |
| 20260510091515 | 53 | 0.0 | 0.0 | 0.00 | 0.25 | 0.00 | 91 | 1011.5 | |
| 20260510091015 | 53 | 0.0 | 0.0 | 0.00 | 0.25 | 0.00 | 90 | 1011.6 | |
| 20260510090515 | 53 | 0.0 | 0.0 | 0.00 | 0.25 | 0.00 | 91 | 1011.6 | |
| 20260510090015 | 54 | 0.0 | 0.0 | 0.00 | 0.25 | 0.00 | 91 | 1011.8 | |
| 20260510085515 | 54 | 0.0 | 0.0 | 0.00 | 0.25 | 0.00 | 91 | 1011.8 | |
| 20260510085015 | 54 | 0.0 | 0.0 | 0.00 | 0.25 | 0.00 | 91 | 1011.9 | |
| 20260510084515 | 54 | 0.0 | 0.0 | 0.00 | 0.25 | 0.00 | 91 | 1012.0 | |
| 20260510084016 | 54 | 0.0 | 0.0 | 0.00 | 0.25 | 0.00 | 91 | 1011.8 | |
| 20260510083516 | 54 | 0.0 | 0.0 | 0.00 | 0.25 | 0.00 | 91 | 1011.8 | |
| 20260510083015 | 54 | 0.0 | 0.0 | 0.00 | 0.25 | 0.00 | 91 | 1011.9 | |
| 20260510082515 | 54 | 0.0 | 0.0 | 0.00 | 0.25 | 0.00 | 91 | 1011.7 | |
| 20260510082015 | 54 | 0.0 | 0.0 | 0.00 | 0.25 | 0.00 | 91 | 1011.8 | |
| 20260510081515 | 54 | 0.0 | 0.0 | 0.00 | 0.25 | 0.00 | 91 | 1011.8 | |
| 20260510081015 | 54 | 0.0 | 4.0 | 0.00 | 0.25 | 0.00 | 91 | 1011.7 | |
| 20260510080515 | 54 | 0.0 | 1.0 | 0.00 | 0.25 | 0.00 | 91 | 1011.6 | |
| 20260510080015 | 54 | 0.0 | 0.0 | 0.00 | 0.25 | 0.00 | 91 | 1011.1 | |
| 20260510075515 | 54 | 0.0 | 0.0 | 0.00 | 0.25 | 0.00 | 91 | 1010.9 | |
| 20260510075015 | 54 | 0.0 | 0.0 | 0.00 | 0.25 | 0.00 | 91 | 1010.9 | |
| 20260510074515 | 54 | 0.0 | 0.0 | 0.00 | 0.25 | 0.00 | 91 | 1010.8 | |
| 20260510074015 | 54 | 0.0 | 0.0 | 0.00 | 0.25 | 0.00 | 91 | 1010.8 | |
| 20260510073515 | 54 | 0.0 | 0.0 | 0.00 | 0.25 | 0.00 | 91 | 1010.8 | |
| 20260510073015 | 54 | 0.0 | 0.0 | 0.00 | 0.25 | 0.00 | 91 | 1010.8 | |
| 20260510072515 | 54 | 0.0 | 0.0 | 0.00 | 0.25 | 0.00 | 91 | 1010.7 | |
| 20260510072015 | 54 | 0.0 | 0.0 | 0.00 | 0.25 | 0.00 | 91 | 1010.8 | |
| 20260510071531 | 54 | 0.0 | 0.0 | 0.00 | 0.25 | 0.00 | 91 | 1010.8 | |
| 20260510071015 | 54 | 0.0 | 0.0 | 0.00 | 0.25 | 0.00 | 91 | 1010.8 | |
| 20260510070515 | 54 | 0.0 | 0.0 | 0.00 | 0.25 | 0.00 | 91 | 1010.9 | |
| 20260510070015 | 54 | 0.0 | 0.0 | 0.00 | 0.25 | 0.00 | 91 | 1010.9 | |
| 20260510065515 | 54 | 0.0 | 0.0 | 0.00 | 0.25 | 0.00 | 91 | 1011.0 | |
| 20260510065015 | 54 | 0.0 | 0.0 | 0.00 | 0.25 | 0.00 | 91 | 1011.0 | |
| 20260510064515 | 54 | 0.0 | 0.0 | 0.00 | 0.25 | 0.00 | 91 | 1011.0 | |
| 20260510064015 | 54 | 0.0 | 0.0 | 0.00 | 0.25 | 0.00 | 91 | 1011.1 | |
| 20260510063515 | 54 | 0.0 | 0.0 | 0.00 | 0.25 | 0.00 | 91 | 1011.0 | |
| 20260510063015 | 54 | 0.0 | 0.0 | 0.00 | 0.25 | 0.00 | 91 | 1011.0 | |
| 20260510062515 | 54 | 0.0 | 0.0 | 0.00 | 0.25 | 0.00 | 91 | 1011.0 | |
| 20260510062015 | 54 | 0.0 | 0.0 | 0.00 | 0.25 | 0.00 | 91 | 1010.9 | |
| 20260510061515 | 54 | 0.0 | 0.0 | 0.00 | 0.25 | 0.00 | 91 | 1010.7 | |
| 20260510061015 | 54 | 0.0 | 0.0 | 0.00 | 0.25 | 0.00 | 90 | 1010.6 | |
| 20260510060515 | 54 | 0.0 | 0.0 | 0.00 | 0.25 | 0.00 | 90 | 1010.6 | |
| 20260510060015 | 54 | 0.0 | 0.0 | 0.00 | 0.25 | 0.00 | 91 | 1010.7 | |
| 20260510055515 | 54 | 0.0 | 0.0 | 0.00 | 0.25 | 0.00 | 91 | 1010.6 | |
| 20260510055015 | 54 | 0.0 | 0.0 | 0.00 | 0.25 | 0.00 | 91 | 1010.7 | |
| 20260510054515 | 54 | 0.0 | 0.0 | 0.00 | 0.25 | 0.00 | 91 | 1010.7 | |
| 20260510054015 | 54 | 0.0 | 0.0 | 0.00 | 0.25 | 0.00 | 91 | 1010.7 | |
| 20260510053517 | 54 | 0.0 | 0.0 | 0.00 | 0.25 | 0.00 | 91 | 1010.7 | |
| 20260510053017 | 54 | 0.0 | 0.0 | 0.00 | 0.25 | 0.00 | 91 | 1010.7 | |
| 20260510052517 | 54 | 0.0 | 0.0 | 0.00 | 0.25 | 0.00 | 91 | 1010.6 | |
| 20260510052017 | 54 | 0.0 | 0.0 | 0.00 | 0.25 | 0.00 | 90 | 1010.8 | |
| 20260510051517 | 54 | 0.0 | 0.0 | 0.00 | 0.25 | 0.00 | 90 | 1010.8 | |
| 20260510051016 | 54 | 0.0 | 0.0 | 0.00 | 0.25 | 0.00 | 90 | 1010.9 | |
| 20260510050517 | 54 | 0.0 | 0.0 | 0.00 | 0.25 | 0.00 | 90 | 1010.9 | |
| 20260510050017 | 54 | 0.0 | 0.0 | 0.00 | 0.25 | 0.00 | 90 | 1010.9 | |
| 20260510045517 | 54 | 0.0 | 0.0 | 0.00 | 0.25 | 0.00 | 90 | 1010.9 | |
| 20260510045017 | 54 | 0.0 | 0.0 | 0.00 | 0.25 | 0.00 | 90 | 1010.9 | |
| 20260510044517 | 54 | 0.0 | 0.0 | 0.00 | 0.25 | 0.00 | 90 | 1010.8 | |
| 20260510044017 | 54 | 0.0 | 0.0 | 0.00 | 0.25 | 0.00 | 90 | 1010.9 | |
| 20260510043517 | 53 | 0.0 | 0.0 | 0.00 | 0.25 | 0.00 | 90 | 1011.0 | |
| 20260510043017 | 53 | 0.0 | 0.0 | 0.00 | 0.25 | 0.00 | 90 | 1011.0 | |
| 20260510042517 | 53 | 0.0 | 0.0 | 0.00 | 0.25 | 0.00 | 90 | 1010.9 | |
| 20260510042016 | 53 | 0.0 | 0.0 | 0.00 | 0.25 | 0.00 | 90 | 1011.0 | |
| 20260510041517 | 53 | 0.0 | 0.0 | 0.00 | 0.25 | 0.00 | 90 | 1011.0 | |
| 20260510041032 | 53 | 0.0 | 0.0 | 0.00 | 0.25 | 0.00 | 90 | 1010.9 | |
| 20260510040517 | 53 | 0.0 | 0.0 | 0.00 | 0.25 | 0.00 | 90 | 1010.9 | |
| 20260510040017 | 53 | 0.0 | 0.0 | 0.00 | 0.25 | 0.00 | 90 | 1010.9 | |
| 20260510035515 | 53 | 0.0 | 0.0 | 0.00 | 0.25 | 0.25 | 90 | 1010.8 | |
| 20260510035015 | 53 | 0.0 | 0.0 | 0.00 | 0.25 | 0.25 | 90 | 1010.8 | |
| 20260510034515 | 53 | 0.0 | 0.0 | 0.00 | 0.25 | 0.25 | 90 | 1010.7 | |
| 20260510034015 | 53 | 0.0 | 0.0 | 0.00 | 0.25 | 0.25 | 90 | 1010.6 | |
| 20260510033515 | 53 | 0.0 | 0.0 | 0.00 | 0.25 | 0.25 | 90 | 1010.5 | |
| 20260510033015 | 54 | 0.0 | 0.0 | 0.00 | 0.25 | 0.25 | 90 | 1010.6 | |
| 20260510032515 | 54 | 0.0 | 0.0 | 0.00 | 0.25 | 0.25 | 90 | 1010.6 | |
| 20260510032015 | 54 | 0.0 | 0.0 | 0.00 | 0.25 | 0.25 | 90 | 1010.5 | |
| 20260510031515 | 54 | 0.0 | 0.0 | 0.00 | 0.25 | 0.25 | 89 | 1010.5 | |
| 20260510031015 | 54 | 0.0 | 0.0 | 0.00 | 0.25 | 0.25 | 89 | 1010.5 | |
| 20260510030515 | 54 | 0.0 | 0.0 | 0.00 | 0.25 | 0.25 | 89 | 1010.5 | |
| 20260510030015 | 54 | 0.0 | 0.0 | 0.00 | 0.25 | 0.25 | 89 | 1010.5 | |
| 20260510025515 | 54 | 0.0 | 0.0 | 0.00 | 0.25 | 0.25 | 89 | 1010.6 | |
| 20260510025015 | 54 | 0.0 | 0.0 | 0.00 | 0.25 | 0.25 | 89 | 1010.5 | |
| 20260510024515 | 54 | 0.0 | 0.0 | 0.00 | 0.25 | 0.25 | 89 | 1010.4 | |
| 20260510024015 | 54 | 0.0 | 0.0 | 0.00 | 0.25 | 0.25 | 90 | 1010.5 | |
| 20260510023515 | 54 | 0.0 | 0.0 | 0.00 | 0.25 | 0.25 | 90 | 1010.6 | |
| 20260510023015 | 54 | 0.0 | 0.0 | 0.00 | 0.25 | 0.25 | 90 | 1010.6 | |
| 20260510022515 | 54 | 0.0 | 0.0 | 0.00 | 0.25 | 0.25 | 90 | 1010.6 | |
| 20260510022015 | 54 | 0.0 | 0.0 | 0.00 | 0.25 | 0.25 | 90 | 1010.7 | |
| 20260510021515 | 54 | 0.0 | 0.0 | 0.00 | 0.25 | 0.25 | 90 | 1010.7 | |
| 20260510021015 | 54 | 0.0 | 0.0 | 0.00 | 0.25 | 0.25 | 90 | 1010.7 | |
| 20260510020515 | 54 | 0.0 | 0.0 | 0.00 | 0.25 | 0.25 | 90 | 1010.6 | |
| 20260510020015 | 54 | 0.0 | 0.0 | 0.00 | 0.25 | 0.25 | 90 | 1010.6 | |
| 20260510015515 | 54 | 0.0 | 0.0 | 0.00 | 0.25 | 0.25 | 90 | 1010.5 | |
| 20260510015015 | 54 | 0.0 | 0.0 | 0.00 | 0.25 | 0.25 | 90 | 1010.6 | |
| 20260510014515 | 54 | 0.0 | 0.0 | 0.00 | 0.25 | 0.25 | 89 | 1010.5 | |
| 20260510014015 | 54 | 0.0 | 0.0 | 0.00 | 0.25 | 0.25 | 89 | 1010.5 | |
| 20260510013515 | 54 | 0.0 | 0.0 | 0.00 | 0.25 | 0.25 | 88 | 1010.6 | |
| 20260510013015 | 54 | 0.0 | 0.0 | 0.00 | 0.25 | 0.25 | 88 | 1010.7 | |
| 20260510012515 | 54 | 0.0 | 0.0 | 0.00 | 0.25 | 0.25 | 88 | 1010.6 | |
| 20260510012015 | 54 | 0.0 | 0.0 | 0.00 | 0.25 | 0.25 | 88 | 1010.5 | |
| 20260510011515 | 54 | 0.0 | 0.0 | 0.00 | 0.25 | 0.25 | 88 | 1010.4 | |
| 20260510011015 | 54 | 0.0 | 0.0 | 0.00 | 0.25 | 0.25 | 88 | 1010.4 | |
| 20260510010531 | 54 | 0.0 | 0.0 | 0.00 | 0.25 | 0.25 | 88 | 1010.3 | |
| 20260510010015 | 55 | 0.0 | 0.0 | 0.00 | 0.25 | 0.25 | 88 | 1010.2 | |
| 20260510005515 | 55 | 0.0 | 0.0 | 0.00 | 0.25 | 0.25 | 88 | 1010.1 | |
| 20260510005015 | 55 | 0.0 | 0.0 | 0.00 | 0.25 | 0.25 | 88 | 1010.0 | |
| 20260510004515 | 55 | 0.0 | 0.0 | 0.00 | 0.25 | 0.25 | 88 | 1010.0 | |
| 20260510004015 | 55 | 0.0 | 0.0 | 0.00 | 0.25 | 0.25 | 88 | 1010.1 | |
| 20260510003515 | 55 | 0.0 | 0.0 | 0.00 | 0.25 | 0.25 | 88 | 1009.9 | |
| 20260510003015 | 56 | 0.0 | 0.0 | 0.00 | 0.25 | 0.25 | 88 | 1010.0 | |
| 20260510002515 | 56 | 0.0 | 0.0 | 0.00 | 0.25 | 0.25 | 88 | 1010.0 | |
| 20260510002017 | 56 | 0.0 | 0.0 | 0.00 | 0.25 | 0.25 | 88 | 1009.9 | |
| 20260510001517 | 56 | 0.0 | 0.0 | 0.00 | 0.25 | 0.25 | 88 | 1010.0 | |
| 20260510001017 | 56 | 0.0 | 0.0 | 0.00 | 0.25 | 0.25 | 87 | 1010.0 | |
| 20260510000517 | 56 | 0.0 | 0.0 | 0.00 | 0.25 | 0.25 | 87 | 1010.0 | |
| 20260510000017 | 56 | 0.0 | 0.0 | 0.00 | 0.25 | 0.25 | 87 | 1010.0 | |
| 20260509235517 | 57 | 0.0 | 0.0 | 0.00 | 0.25 | 0.25 | 87 | 1009.8 | |
| 20260509235017 | 57 | 0.0 | 0.0 | 0.00 | 0.25 | 0.25 | 87 | 1009.8 | |
| 20260509234517 | 57 | 0.0 | 0.0 | 0.00 | 0.25 | 0.25 | 87 | 1009.8 | |
| 20260509234017 | 57 | 0.0 | 0.0 | 0.00 | 0.25 | 0.25 | 87 | 1009.8 | |
| 20260509233517 | 57 | 0.0 | 0.0 | 0.00 | 0.25 | 0.25 | 88 | 1009.6 | |
| 20260509233017 | 57 | 0.0 | 0.0 | 0.00 | 0.25 | 0.25 | 88 | 1009.4 | |
| 20260509232517 | 57 | 0.0 | 0.0 | 0.00 | 0.25 | 0.25 | 88 | 1009.4 | |
| 20260509232017 | 57 | 0.0 | 0.0 | 0.00 | 0.25 | 0.25 | 88 | 1009.6 | |
| 20260509231517 | 57 | 0.0 | 0.0 | 0.00 | 0.25 | 0.25 | 88 | 1009.6 | |
| 20260509231017 | 57 | 0.0 | 0.0 | 0.00 | 0.25 | 0.25 | 88 | 1009.6 | |
| 20260509230517 | 57 | 0.0 | 0.0 | 0.01 | 0.25 | 0.25 | 88 | 1009.5 | |
| 20260509230016 | 57 | 0.0 | 0.0 | 0.01 | 0.25 | 0.25 | 88 | 1009.6 | |
| 20260509225517 | 57 | 0.0 | 0.0 | 0.01 | 0.25 | 0.25 | 88 | 1009.7 | |
| 20260509225016 | 57 | 0.0 | 0.0 | 0.01 | 0.25 | 0.25 | 88 | 1009.8 | |
| 20260509224516 | 57 | 0.0 | 0.0 | 0.01 | 0.25 | 0.25 | 89 | 1010.0 | |
| 20260509224017 | 57 | 0.0 | 0.0 | 0.05 | 0.25 | 0.25 | 88 | 1010.1 | |
| 20260509223517 | 57 | 0.0 | 0.0 | 0.09 | 0.25 | 0.25 | 88 | 1010.0 | |
| 20260509223016 | 57 | 0.0 | 0.0 | 0.11 | 0.25 | 0.25 | 88 | 1010.0 | |
| 20260509222516 | 57 | 0.0 | 0.0 | 0.13 | 0.25 | 0.25 | 88 | 1010.0 | |
| 20260509222016 | 57 | 0.0 | 0.0 | 0.14 | 0.25 | 0.25 | 88 | 1010.0 | |
| 20260509221517 | 57 | 0.0 | 0.0 | 0.15 | 0.25 | 0.25 | 88 | 1010.0 | |
| 20260509221016 | 57 | 0.0 | 0.0 | 0.17 | 0.25 | 0.25 | 88 | 1010.1 | |
| 20260509220517 | 57 | 0.0 | 0.0 | 0.18 | 0.24 | 0.24 | 88 | 1010.0 | |
| 20260509220032 | 57 | 0.0 | 0.0 | 0.19 | 0.24 | 0.24 | 87 | 1010.0 | |
| 20260509215517 | 57 | 0.0 | 0.0 | 0.19 | 0.24 | 0.24 | 87 | 1010.1 | |
| 20260509215016 | 57 | 0.0 | 0.0 | 0.19 | 0.24 | 0.24 | 87 | 1010.4 | |
| 20260509214517 | 57 | 0.0 | 0.0 | 0.20 | 0.24 | 0.24 | 86 | 1010.4 | |
| 20260509214016 | 57 | 0.0 | 0.0 | 0.16 | 0.20 | 0.20 | 86 | 1010.3 | |
| 20260509213517 | 57 | 0.0 | 0.0 | 0.13 | 0.15 | 0.15 | 86 | 1010.4 | |
| 20260509213016 | 57 | 0.0 | 0.0 | 0.11 | 0.13 | 0.13 | 86 | 1010.1 | |
| 20260509212516 | 57 | 0.0 | 0.0 | 0.09 | 0.12 | 0.12 | 85 | 1010.5 | |
| 20260509212016 | 57 | 0.0 | 0.0 | 0.08 | 0.11 | 0.11 | 85 | 1010.1 | |
| 20260509211516 | 57 | 0.0 | 0.0 | 0.07 | 0.10 | 0.10 | 85 | 1010.1 | |
| 20260509211016 | 58 | 0.0 | 0.0 | 0.05 | 0.08 | 0.08 | 85 | 1010.5 | |
| 20260509210516 | 58 | 0.0 | 0.0 | 0.03 | 0.06 | 0.06 | 85 | 1010.4 | |
| 20260509210016 | 58 | 0.0 | 0.0 | 0.02 | 0.05 | 0.05 | 84 | 1010.3 | |
| 20260509205516 | 58 | 0.0 | 0.0 | 0.02 | 0.05 | 0.05 | 84 | 1010.1 | |
| 20260509205016 | 58 | 0.0 | 0.0 | 0.02 | 0.05 | 0.05 | 84 | 1009.8 | |
| 20260509204516 | 58 | 0.0 | 0.0 | 0.01 | 0.04 | 0.04 | 83 | 1010.2 | |
| 20260509204016 | 58 | 0.0 | 0.0 | 0.02 | 0.04 | 0.04 | 83 | 1010.3 | |
| 20260509203516 | 58 | 0.0 | 0.0 | 0.01 | 0.03 | 0.03 | 82 | 1010.2 | |
| 20260509203016 | 58 | 0.0 | 0.0 | 0.01 | 0.03 | 0.03 | 82 | 1010.3 | |
| 20260509202516 | 58 | 0.0 | 0.0 | 0.01 | 0.03 | 0.03 | 81 | 1010.4 | |
| 20260509202016 | 58 | 0.0 | 0.0 | 0.01 | 0.03 | 0.03 | 81 | 1010.3 | |
| 20260509201516 | 58 | 0.0 | 0.0 | 0.01 | 0.03 | 0.03 | 82 | 1010.4 | |
| 20260509201016 | 58 | 0.0 | 0.0 | 0.01 | 0.03 | 0.03 | 81 | 1010.4 | |
| 20260509200516 | 58 | 0.0 | 0.0 | 0.01 | 0.03 | 0.03 | 80 | 1010.4 | |
| 20260509200016 | 58 | 0.0 | 0.0 | 0.01 | 0.03 | 0.03 | 80 | 1010.6 | |
| 20260509195516 | 59 | 0.0 | 0.0 | 0.01 | 0.03 | 0.03 | 80 | 1010.6 | |
| 20260509195016 | 59 | 0.0 | 0.0 | 0.01 | 0.03 | 0.03 | 79 | 1010.7 | |
| 20260509194516 | 59 | 0.0 | 2.0 | 0.01 | 0.03 | 0.03 | 78 | 1010.8 | |
| 20260509194016 | 59 | 225 | 2.0 | 6.0 | 0.00 | 0.02 | 0.02 | 78 | 1010.9 |
| 20260509193516 | 59 | 0.0 | 0.0 | 0.00 | 0.02 | 0.02 | 78 | 1010.7 | |
| 20260509193016 | 60 | 0.0 | 2.0 | 0.00 | 0.02 | 0.02 | 76 | 1010.8 | |
| 20260509192516 | 60 | 0.0 | 4.0 | 0.00 | 0.02 | 0.02 | 76 | 1010.7 | |
| 20260509192017 | 60 | 0.0 | 0.0 | 0.00 | 0.02 | 0.02 | 75 | 1010.5 | |
| 20260509191516 | 60 | 0.0 | 0.0 | 0.00 | 0.02 | 0.02 | 76 | 1010.7 | |
| 20260509191016 | 60 | 0.0 | 0.0 | 0.00 | 0.02 | 0.02 | 76 | 1010.5 | |
| 20260509190516 | 60 | 0.0 | 0.0 | 0.00 | 0.02 | 0.02 | 76 | 1010.5 |